Weather reports worldwide

Advertisment
Feldberg/Mecklenburg, Germany (10282): temperature & dewpoint: 10.11.2018 05:00:00 - 16.11.2018 05:00:00 (CET)Feldberg/Mecklenburg, Germany (10282): temperature 5cm & temperature -5cm: 10.11.2018 05:00:00 - 16.11.2018 05:00:00 (CET)Feldberg/Mecklenburg, Germany (10282): temperature -20cm & temperature -100cm: 10.11.2018 05:00:00 - 16.11.2018 05:00:00 (CET)Feldberg/Mecklenburg, Germany (10282): wind speed & gusts: 10.11.2018 05:00:00 - 16.11.2018 05:00:00 (CET)Feldberg/Mecklenburg, Germany (10282): wind direction: 10.11.2018 05:00:00 - 16.11.2018 05:00:00 (CET)Feldberg/Mecklenburg, Germany (10282): reduced air pressure: 10.11.2018 05:00:00 - 16.11.2018 05:00:00 (CET)Feldberg/Mecklenburg, Germany (10282): visibility: 10.11.2018 05:00:00 - 16.11.2018 05:00:00 (CET)Feldberg/Mecklenburg, Germany (10282): sunshine duration: 10.11.2018 05:00:00 - 16.11.2018 05:00:00 (CET)Feldberg/Mecklenburg, Germany (10282): precipitation: 10.11.2018 05:00:00 - 16.11.2018 05:00:00 (CET)
Date & Time tt [°C] td [°C] tt 5cm [°C] tt -5cm [°C] tt -20cm [°C] tt -100cm [°C] ff [km/h] ff [kn] fx [km/h] fx [kn] dd ppp [hPa] vv [km] sd [min] rr [mm]
16.11.2018 05:00:00 3,4 1,6 2,2 2,7 6,2 10,7 13 7 24 13 ESE 1034,3 8 0 0,0
16.11.2018 04:00:00 4,0 1,9 2,7 3,0 6,4 10,7 14 7 24 13 ESE 1034,0 9 0 0,0
16.11.2018 03:00:00 3,8 2,0 2,6 3,3 6,6 10,7 14 8 23 13 ESE 1033,7 9 0 0,0
16.11.2018 02:00:00 4,5 2,2 3,2 3,6 6,8 10,7 11 6 20 11 SE 1033,7 11 0 0,0
16.11.2018 01:00:00 4,5 2,6 3,5 3,9 7,0 10,7 13 7 21 12 SE 1033,4 9 0 0,0
16.11.2018 00:00:00 4,8 3,1 3,7 4,2 7,3 10,7 15 8 22 12 SE 1033,2 9 0 0,0
15.11.2018 23:00:00 5,1 3,6 4,0 4,5 7,5 10,7 13 7 21 11 SE 1033,0 8 0 0,0
15.11.2018 22:00:00 5,3 3,9 4,1 4,9 7,7 10,7 12 6 24 13 SE 1032,7 9 0 0,0
15.11.2018 21:00:00 5,8 4,4 4,7 5,3 8,0 10,7 14 8 25 13 ESE 1032,3 9 0 0,0
15.11.2018 20:00:00 6,1 4,3 5,0 5,7 8,2 10,7 13 7 26 14 SE 1032,0 15 0 0,0
15.11.2018 19:00:00 6,6 4,8 5,3 6,1 8,4 10,7 14 7 21 11 ESE 1031,6 18 0 0,0
15.11.2018 18:00:00 7,4 4,8 6,3 6,7 8,6 10,7 14 7 19 10 ESE 1031,3 24 0 0,0
15.11.2018 17:00:00 7,8 5,1 6,2 7,6 8,8 10,7 9 5 22 12 SE 1031,1 33 0 0,0
15.11.2018 16:00:00 8,9 5,4 7,9 8,8 8,7 10,7 10 6 22 12 SE 1030,9 33 48 0,0
15.11.2018 15:00:00 9,5 5,6 9,5 9,9 8,5 10,7 12 6 23 13 ESE 1030,8 32 58 0,0
15.11.2018 14:00:00 9,3 5,6 9,6 9,4 8,3 10,7 14 8 22 12 ESE 1030,7 27 6 0,0
15.11.2018 13:00:00 9,1 6,2 9,5 9,5 8,0 10,7 12 6 19 11 ESE 1030,7 20 0 0,0
15.11.2018 12:00:00 8,9 6,0 9,5 9,2 7,7 10,8 10 5 18 10 ESE 1031,0 25 5 0,0
15.11.2018 11:00:00 8,2 6,0 8,5 8,0 7,5 10,8 9 5 16 9 SSE 1031,1 18 0 0,0
15.11.2018 10:00:00 7,2 6,3 7,2 6,9 7,4 10,8 6 3 10 5 SE 1031,0 11 0 0,0
15.11.2018 09:00:00 6,4 6,0 6,3 6,3 7,4 10,8 6 4 10 5 SE 1030,9 6 0 0,0
15.11.2018 08:00:00 5,9 5,7 5,8 5,8 7,4 10,8 5 3 9 5 E 1030,6 4,6 0 0,0
15.11.2018 07:00:00 5,7 5,6 5,4 5,6 7,5 10,8 7 4 9 5 E 1030,2 2,7 0 0,0
15.11.2018 06:00:00 5,3 5,3 4,5 5,6 7,5 10,8 4 2 6 3 ESE 1030,0 1,2 0 0,0
15.11.2018 05:00:00 5,3 5,3 4,3 5,6 7,6 10,8 2 1 6 3 E 1030,0 1,5 0 0,0
15.11.2018 04:00:00 5,2 5,1 4,5 5,6 7,8 10,8 5 3 6 4 ESE 1029,9 1,5 0 0,0
15.11.2018 03:00:00 4,6 4,5 3,7 5,7 7,9 10,8 0 0 5 3 N 1030,0 1,9 0 0,0
15.11.2018 02:00:00 5,4 5,4 4,5 5,9 8,0 10,8 4 2 5 3 SSE 1030,0 2,1 0 0,0
15.11.2018 01:00:00 5,0 5,0 3,1 6,0 8,2 10,8 0 0 5 3 N 1030,0 1,9 0 0,0
15.11.2018 00:00:00 5,7 5,7 4,9 6,5 8,3 10,8 3 2 6 3 S 1030,1 3,0 0 0,0
14.11.2018 23:00:00 5,9 5,7 5,5 6,6 8,5 10,8 4 2 6 4 SSE 1030,0 3,9 0 0,0
14.11.2018 22:00:00 6,1 6,0 5,8 6,6 8,6 10,8 5 3 8 4 SE 1029,7 4,7 0 0,0
14.11.2018 21:00:00 5,8 5,7 4,8 6,8 8,8 10,8 5 3 7 4 S 1030,0 6 0 0,0
14.11.2018 20:00:00 5,7 5,4 4,8 7,1 9,0 10,8 3 2 6 3 SSW 1029,8 6 0 0,0
14.11.2018 19:00:00 6,6 6,0 5,6 7,6 9,2 10,8 4 2 14 8 SSE 1029,5 9 0 0,0
14.11.2018 18:00:00 7,1 6,2 6,7 8,0 9,4 10,8 8 5 19 11 WSW 1029,8 11 0 0,0
14.11.2018 17:00:00 7,2 6,1 6,8 8,4 9,5 10,8 12 6 19 10 WSW 1029,7 14 0 0,0
14.11.2018 16:00:00 8,0 6,5 7,2 9,4 9,6 10,8 10 5 18 10 SW 1029,6 22 7 0,0
14.11.2018 15:00:00 8,7 6,5 8,7 10,4 9,4 10,8 12 7 19 11 WSW 1029,1 18 0 0,0
14.11.2018 14:00:00 9,0 6,4 9,2 11,0 9,2 10,8 14 8 20 11 WSW 1029,1 20 24 0,0
14.11.2018 13:00:00 9,6 6,3 10,6 11,2 8,8 10,8 13 7 23 12 WSW 1029,3 19 60 0,0
14.11.2018 12:00:00 9,3 6,8 10,5 10,5 8,5 10,8 14 8 21 11 WSW 1029,0 15 60 0,0
14.11.2018 11:00:00 8,6 6,7 9,8 9,3 8,3 10,8 13 7 21 11 WSW 1028,7 12 52 0,0
14.11.2018 10:00:00 8,1 6,8 8,7 8,0 8,2 10,8 11 6 21 11 W 1028,4 9 0 0,0
14.11.2018 09:00:00 7,7 6,7 7,6 7,5 8,2 10,8 14 8 24 13 W 1028,2 9 0 0,0
14.11.2018 08:00:00 7,6 6,5 7,4 7,2 8,2 10,8 15 8 22 12 WSW 1027,7 10 0 0,0
14.11.2018 07:00:00 7,7 6,5 7,4 7,2 8,2 10,8 14 8 23 12 W 1027,0 12 0 0,0
14.11.2018 06:00:00 7,8 6,5 7,5 7,2 8,2 10,8 15 8 26 14 WSW 1026,7 14 0 0,0
14.11.2018 05:00:00 8,0 6,6 7,5 7,1 8,2 10,8 16 9 26 14 WSW 1026,6 15 0 0,0
14.11.2018 04:00:00 8,0 6,6 7,5 7,0 8,2 10,8 16 9 25 13 W 1026,4 16 0 0,0
14.11.2018 03:00:00 7,6 6,5 7,1 6,7 8,3 10,8 17 9 25 14 WSW 1026,0 17 0 0,0
14.11.2018 02:00:00 7,2 6,1 6,1 6,6 8,3 10,8 17 9 27 14 WSW 1025,8 15 0 0,0
14.11.2018 01:00:00 7,7 6,4 7,0 6,7 8,4 10,8 20 11 32 17 WSW 1025,2 18 0 0,0
14.11.2018 00:00:00 7,3 6,2 6,6 6,4 8,6 10,8 19 10 29 16 WSW 1024,9 17 0 0,0
13.11.2018 23:00:00 7,1 6,1 6,0 6,6 8,8 10,8 21 12 29 16 WSW 1024,4 16 0 0,0
13.11.2018 22:00:00 7,5 6,5 6,7 6,9 9,0 10,8 18 10 26 14 WSW 1024,2 17 0 0,0
13.11.2018 21:00:00 7,8 6,8 7,0 7,2 9,3 10,8 16 9 21 12 WSW 1023,7 17 0 0,0
13.11.2018 20:00:00 7,7 6,9 6,5 7,7 9,4 10,8 14 7 19 10 WSW 1023,5 14 0 0,0
13.11.2018 19:00:00 8,7 7,5 7,4 8,4 9,6 10,8 13 7 25 14 WSW 1022,9 17 0 0,1
13.11.2018 18:00:00 9,4 8,4 8,5 8,6 9,7 10,8 14 7 19 10 WSW 1022,3 11 0 0,0
13.11.2018 17:00:00 9,0 8,7 8,0 9,1 9,8 10,8 9 5 16 9 SW 1021,6 7 0 0,0
13.11.2018 16:00:00 9,8 9,3 9,0 10,2 9,7 10,8 11 6 19 11 SSW 1021,3 11 0 0,3
13.11.2018 15:00:00 10,1 9,4 10,2 10,8 9,5 10,8 12 6 19 10 SW 1021,0 12 5 0,0
13.11.2018 14:00:00 10,3 9,5 11,3 10,3 9,4 10,8 11 6 18 10 SW 1020,8 16 1 0,0
13.11.2018 13:00:00 9,7 9,1 9,6 9,7 9,3 10,8 8 4 17 9 SSW 1020,7 11 0 1,0
13.11.2018 12:00:00 9,7 9,1 9,6 9,6 9,1 10,8 9 5 16 9 WSW 1020,9 4,6 0 0,9
13.11.2018 11:00:00 9,8 9,4 9,8 9,3 9,0 10,8 10 6 16 8 WSW 1020,7 5 0 0,7
13.11.2018 10:00:00 9,5 9,3 9,4 8,8 9,0 10,8 8 5 14 8 WSW 1020,3 3,4 0 0,8
13.11.2018 09:00:00 9,3 9,1 9,1 8,5 9,0 10,8 6 3 12 6 WSW 1019,9 5 0 0,3
13.11.2018 08:00:00 9,1 8,8 8,8 8,3 9,1 10,8 8 4 12 7 WSW 1020,0 6 0 0,1
13.11.2018 07:00:00 8,8 8,7 8,2 8,4 9,1 10,8 3 2 6 4 SSW 1019,0 4,7 0 0,2
13.11.2018 06:00:00 9,3 9,2 8,9 8,5 9,1 10,8 5 3 8 4 SSE 1018,5 6 0 0,4
13.11.2018 05:00:00 9,2 8,8 8,6 8,6 9,1 10,8 5 3 8 5 W 1018,9 4,9 0 0,1
13.11.2018 04:00:00 10,1 9,2 9,4 8,6 9,1 10,8 6 4 10 5 SW 1018,6 20 0 0,0
13.11.2018 03:00:00 10,3 9,1 9,8 8,7 9,1 10,8 9 5 11 6 WSW 1018,6 21 0 0,0
13.11.2018 02:00:00 10,2 8,7 9,6 8,4 9,1 10,8 6 4 10 6 SW 1017,9 23 0 0,0
13.11.2018 01:00:00 10,2 8,3 9,0 8,4 9,2 10,8 8 4 12 6 SW 1017,3 24 0 0,1
13.11.2018 00:00:00 10,4 8,1 9,2 8,4 9,2 10,8 7 4 13 7 SW 1017,2 26 0 0,0
12.11.2018 23:00:00 10,9 8,0 9,5 8,5 9,3 10,8 8 4 22 12 SW 1016,7 25 0 0,0
12.11.2018 22:00:00 11,1 8,2 10,0 8,5 9,4 10,8 14 8 23 12 SSW 1016,4 23 0 0,0
12.11.2018 21:00:00 11,4 8,4 10,0 8,8 9,5 10,8 17 9 28 15 S 1015,9 21 0 0,0
12.11.2018 20:00:00 11,4 8,5 10,1 8,8 9,6 10,8 18 10 26 14 S 1015,6 20 0 0,0
12.11.2018 19:00:00 11,2 8,7 9,9 8,9 9,7 10,8 15 8 25 13 S 1015,6 19 0 0,0
12.11.2018 18:00:00 11,2 8,5 10,0 9,3 9,7 10,8 14 7 21 12 SSE 1015,6 21 0 0,0
12.11.2018 17:00:00 11,3 8,7 10,1 10,0 9,7 10,8 14 7 22 12 S 1015,8 23 0 0,0
12.11.2018 16:00:00 12,3 9,2 11,8 10,8 9,6 10,8 15 8 25 14 S 1015,5 25 16 0,0
12.11.2018 15:00:00 12,4 9,2 12,2 11,0 9,3 10,8 19 11 28 15 S 1015,6 27 13 0,0
12.11.2018 14:00:00 12,3 9,5 12,6 10,9 9,1 10,8 15 8 23 13 SSE 1015,8 25 9 0,0
12.11.2018 13:00:00 10,7 9,0 10,7 10,0 8,9 10,8 8 4 16 9 SE 1016,2 16 0 0,0
12.11.2018 12:00:00 9,9 8,7 10,1 9,4 8,7 10,8 10 6 18 10 SE 1017,2 11 0 0,0
12.11.2018 11:00:00 9,2 8,5 9,2 8,7 8,6 10,8 9 5 14 8 SSE 1017,7 8 0 0,0
12.11.2018 10:00:00 8,8 8,2 8,7 8,3 8,6 10,8 5 3 9 5 ESE 1017,6 7 0 0,0
12.11.2018 09:00:00 8,7 8,1 8,4 8,0 8,6 10,8 3 2 12 7 SSE 1017,8 7 0 0,0
12.11.2018 08:00:00 8,5 8,0 8,1 7,9 8,6 10,8 6 3 11 6 SSE 1017,3 6 0 0,0
12.11.2018 07:00:00 8,5 8,0 7,8 7,9 8,7 10,8 4 2 8 5 SSE 1016,5 7 0 0,0
12.11.2018 06:00:00 8,7 8,1 8,1 8,0 8,7 10,8 6 3 11 6 S 1016,3 9 0 0,0
12.11.2018 05:00:00 8,9 8,3 8,2 8,2 8,7 10,8 10 5 20 11 S 1016,3 10 0 0,0
12.11.2018 04:00:00 9,1 8,6 8,5 8,4 8,7 10,8 14 7 24 13 S 1015,8 9 0 0,0
12.11.2018 03:00:00 9,8 9,3 9,3 8,5 8,6 10,8 14 7 24 13 S 1015,4 11 0 1,4
12.11.2018 02:00:00 9,7 9,2 9,2 8,3 8,5 10,8 19 11 29 15 S 1016,0 6 0 1,4
12.11.2018 01:00:00 9,1 8,7 8,7 8,0 8,5 10,8 16 8 27 15 S 1015,5 3,9 0 1,8
12.11.2018 00:00:00 8,8 8,1 8,3 7,7 8,5 10,8 9 5 17 9 S 1014,7 9 0 0,0
11.11.2018 23:00:00 8,8 8,1 8,1 7,6 8,6 10,8 12 7 19 10 S 1014,5 11 0 0,0
11.11.2018 22:00:00 8,3 7,9 7,7 7,4 8,6 10,8 9 5 14 8 S 1014,0 6 0 0,0
11.11.2018 21:00:00 8,5 7,9 7,5 7,5 8,7 10,8 11 6 22 12 S 1013,7 6 0 0,0
11.11.2018 20:00:00 8,3 7,9 7,7 7,5 8,8 10,8 11 6 19 10 SSE 1013,6 4,4 0 0,0
11.11.2018 19:00:00 8,4 8,1 7,6 7,9 8,9 10,8 8 4 23 12 SSE 1013,0 4,0 0 0,0
11.11.2018 18:00:00 8,7 8,3 8,5 8,5 8,9 10,8 14 8 24 13 SSE 1012,8 3,5 0 0,0
11.11.2018 17:00:00 8,5 8,1 8,2 8,6 8,8 10,8 16 9 26 14 S 1012,6 3,6 0 0,0
11.11.2018 16:00:00 8,6 8,2 8,5 9,0 8,7 10,8 10 5 16 9 SSE 1012,2 3,8 1 0,0
11.11.2018 15:00:00 8,3 8,0 8,3 8,5 8,7 10,8 9 5 21 11 SSE 1011,3 3,2 0 0,7
11.11.2018 14:00:00 8,0 7,6 7,9 8,5 8,6 10,8 14 8 22 12 S 1011,9 3,3 0 1,2
11.11.2018 13:00:00 7,9 7,4 7,8 8,4 8,5 10,8 10 6 17 9 SSW 1011,8 4,0 0 0,1
11.11.2018 12:00:00 7,4 6,9 7,6 8,4 8,4 10,8 10 5 18 10 SE 1011,2 3,5 0 0,2
11.11.2018 11:00:00 7,2 6,6 7,4 8,3 8,3 10,8 11 6 16 9 SE 1011,2 3,7 0 0,1
11.11.2018 10:00:00 7,1 6,5 7,4 7,9 8,3 10,8 9 5 16 9 SE 1010,8 3,4 0 0,0
11.11.2018 09:00:00 6,7 6,1 6,7 7,3 8,3 10,8 9 5 20 11 SE 1010,8 3,4 0 0,2
11.11.2018 08:00:00 6,8 6,2 6,6 7,1 8,3 10,8 9 5 16 8 SSE 1011,0 2,7 0 0,4
11.11.2018 07:00:00 7,1 6,2 6,9 7,0 8,3 10,8 9 5 17 9 SSE 1010,8 3,8 0 0,0
11.11.2018 06:00:00 7,1 6,3 6,8 7,0 8,4 10,8 8 4 19 11 SSE 1010,4 3,5 0 0,0
11.11.2018 05:00:00 7,1 6,6 6,8 7,0 8,4 10,8 9 5 19 10 SE 1010,3 3,0 0 0,0
11.11.2018 04:00:00 6,9 6,6 6,6 7,0 8,5 10,8 11 6 19 10 SE 1010,2 2,1 0 0,0
11.11.2018 03:00:00 6,7 6,5 6,4 7,1 8,6 10,8 10 5 17 9 SE 1010,5 2,0 0 0,0
11.11.2018 02:00:00 6,8 6,4 6,5 7,1 8,6 10,8 11 6 16 9 ESE 1010,3 2,5 0 0,0
11.11.2018 01:00:00 7,5 6,7 7,2 7,4 8,7 10,8 10 5 20 11 SE 1010,4 4,0 0 0,0
11.11.2018 00:00:00 7,8 7,0 7,5 7,5 8,7 10,8 11 6 19 10 SSE 1010,5 3,9 0 0,0
10.11.2018 23:00:00 8,0 7,3 7,5 7,3 8,8 10,8 8 4 16 9 SSE 1010,4 3,8 0 0,0
10.11.2018 22:00:00 8,4 7,6 7,6 7,6 8,9 10,8 10 5 18 10 SSE 1010,4 4,6 0 0,0
10.11.2018 21:00:00 8,8 7,8 8,1 7,7 9,0 10,8 9 5 18 10 SSE 1010,3 5 0 0,0
10.11.2018 20:00:00 8,5 7,6 7,6 7,8 9,2 10,8 8 5 13 7 SE 1010,3 4,8 0 0,0
10.11.2018 19:00:00 8,8 7,7 7,7 8,2 9,3 10,8 6 3 14 7 SE 1010,5 5 0 0,0
10.11.2018 18:00:00 8,8 7,7 8,3 8,6 9,3 10,8 7 4 14 8 SE 1010,5 5 0 0,0
10.11.2018 17:00:00 8,8 7,6 8,3 8,8 9,4 10,8 8 4 23 12 SE 1010,3 4,8 0 0,0
10.11.2018 16:00:00 8,7 7,5 8,5 9,3 9,4 10,8 17 9 27 14 ESE 1009,6 4,8 0 0,0
10.11.2018 15:00:00 8,9 7,4 9,0 9,9 9,3 10,8 10 5 27 15 SE 1010,3 5 2 0,0
10.11.2018 14:00:00 9,0 7,7 9,8 10,3 9,1 10,8 17 9 23 12 ESE 1009,9 4,5 16 0,0
10.11.2018 13:00:00 9,3 7,2 10,5 10,5 8,9 10,8 13 7 26 14 SE 1010,3 7 19 0,0
10.11.2018 12:00:00 8,9 7,5 9,6 9,7 8,7 10,8 12 6 23 12 SE 1011,1 6 0 0,0
10.11.2018 11:00:00 7,6 6,9 7,8 8,8 8,6 10,8 12 6 21 12 SE 1011,5 4,5 0 0,0
10.11.2018 10:00:00 7,4 6,9 7,8 8,4 8,5 10,8 13 7 23 13 SE 1011,5 3,2 0 0,0
10.11.2018 09:00:00 7,2 7,0 7,4 7,9 8,5 10,8 13 7 25 13 SSE 1011,6 2,0 0 0,0
10.11.2018 08:00:00 7,1 7,0 7,2 7,7 8,6 10,8 14 7 21 11 SSE 1011,5 1,2 0 0,0
10.11.2018 07:00:00 7,2 7,1 7,2 7,7 8,6 10,8 10 6 21 12 SE 1011,4 1,2 0 0,0
10.11.2018 06:00:00 7,2 7,1 7,2 7,8 8,6 10,8 12 7 23 13 SSE 1011,8 1,2 0 0,0
10.11.2018 05:00:00 7,3 7,1 7,3 7,8 8,6 10,8 11 6 21 11 SSE 1012,1 1,8 0 0,0

tt = temperature
td = dewpoint
tt 5cm = temperature 5cm
tt -5cm = temperature -5cm
tt -20cm = temperature -20cm
tt -100cm = temperature -100cm
ff = wind speed
fx = gusts
dd = wind direction
ppp = reduced air pressure
vv = visibility
sd = sunshine duration
rr = precipitation

Next stations